Weather History for Tulsa, OK

Change the Weather History Date:

Friday, October 4, 2013

  Actual Average Record
Temperature  
Mean Temperature 81 °F 66 °F  
Max Temperature 88 °F 77 °F 97 °F (1931)
Min Temperature 73 °F 54 °F 38 °F (2010)
Degree Days  
Heating Degree Days 0 3  
Month to date heating degree days 0 12  
Since 1 July heating degree days 1 36  
Cooling Degree Days 16 4  
Month to date cooling degree days 54 16  
Year to date cooling degree days 2031 1981  
Growing Degree Days 30 (Base 50)    
Moisture  
Dew Point 69 °F    
Average Humidity 72    
Maximum Humidity 93    
Minimum Humidity 50    
Precipitation  
Precipitation 0.00 in 0.13 in 3.79 in (1941)
Month to date precipitation 0.00 0.50  
Year to date precipitation 25.88 32.24  
Sea Level Pressure  
Sea Level Pressure 29.80 in    
Wind  
Wind Speed 15 mph (SSE)    
Max Wind Speed 26 mph    
Max Gust Speed 31 mph    
Visibility 10 miles    
Events      
T = Trace of Precipitation, MM = Missing Value Source: NWS Daily Summary

Daily Weather History Graph

Daily Weather History Graph

Search for Another Location

Airport:

Trip Planner

Search our weather history database for the weather conditions in past years. The results will help you decide how hot, cold, wet, or windy it might be!

Date:

Astronomy

Oct. 04, 2013 Rise Set
Actual Time 7:21 AM CDT 7:02 PM CDT
Civil Twilight 6:55 AM CDT 7:28 PM CDT
Nautical Twilight 6:25 AM CDT 7:57 PM CDT
Astronomical Twilight 5:56 AM CDT 8:27 PM CDT
Moon 6:57 AM CDT (10/4) 6:46 PM CDT (10/4)
Length of Visible Light 12h 32m
Length of Day
11h 41m
Waning Crescent, 0% of the Moon is Illuminated
Oct 4
Waning Crescent
Oct 4
New
Oct 11
First Quarter
Oct 18
Full
Oct 26
Last Quarter

Hourly Weather History & Observations

Time (CDT) Temp. Heat Index Dew Point Humidity Pressure Visibility Wind Dir Wind Speed Gust Speed Precip Events Conditions
12:53 AM 75.0 °F - 70.0 °F 84% 29.80 in 10.0 mi SSE 11.5 mph - N/A   Clear
1:53 AM 75.0 °F - 70.0 °F 84% 29.80 in 10.0 mi SSE 13.8 mph - N/A   Clear
2:53 AM 75.0 °F - 70.0 °F 84% 29.80 in 10.0 mi South 13.8 mph - N/A   Clear
3:53 AM 73.9 °F - 70.0 °F 87% 29.79 in 10.0 mi South 11.5 mph - N/A   Clear
4:53 AM 73.9 °F - 70.0 °F 87% 29.79 in 10.0 mi SSE 13.8 mph 20.7 mph N/A   Clear
5:53 AM 73.9 °F - 70.0 °F 87% 29.80 in 10.0 mi SSE 15.0 mph 23.0 mph N/A   Partly Cloudy
6:53 AM 73.9 °F - 70.0 °F 87% 29.81 in 10.0 mi South 16.1 mph - N/A   Scattered Clouds
7:53 AM 73.9 °F - 71.1 °F 91% 29.81 in 10.0 mi South 16.1 mph - N/A   Scattered Clouds
8:53 AM 75.9 °F - 71.1 °F 85% 29.83 in 10.0 mi South 13.8 mph 25.3 mph N/A   Mostly Cloudy
9:53 AM 77.0 °F - 70.0 °F 79% 29.84 in 10.0 mi South 11.5 mph 24.2 mph N/A   Mostly Cloudy
10:53 AM 82.0 °F 85.5 °F 69.1 °F 65% 29.83 in 10.0 mi South 20.7 mph 31.1 mph N/A   Mostly Cloudy
11:53 AM 84.0 °F 87.0 °F 68.0 °F 58% 29.82 in 10.0 mi South 23.0 mph 29.9 mph N/A   Overcast
12:53 PM 84.9 °F 88.2 °F 68.0 °F 57% 29.81 in 10.0 mi South 16.1 mph - N/A   Overcast
1:53 PM 86.0 °F 88.8 °F 66.9 °F 53% 29.78 in 10.0 mi South 20.7 mph - N/A   Mostly Cloudy
2:53 PM 86.0 °F 88.8 °F 66.9 °F 53% 29.76 in 10.0 mi South 16.1 mph 28.8 mph N/A   Mostly Cloudy
3:53 PM 87.1 °F 89.9 °F 66.9 °F 51% 29.76 in 10.0 mi South 21.9 mph 28.8 mph N/A   Mostly Cloudy
4:53 PM 87.1 °F 89.9 °F 66.9 °F 51% 29.76 in 10.0 mi South 20.7 mph 27.6 mph N/A   Mostly Cloudy
5:53 PM 84.9 °F 88.8 °F 69.1 °F 59% 29.77 in 10.0 mi SSE 16.1 mph - N/A   Mostly Cloudy
6:53 PM 82.9 °F 86.5 °F 69.1 °F 63% 29.75 in 10.0 mi SSE 17.3 mph - N/A   Scattered Clouds
7:53 PM 82.0 °F 84.9 °F 68.0 °F 62% 29.79 in 10.0 mi South 12.7 mph - N/A   Mostly Cloudy
8:53 PM 80.1 °F 82.7 °F 68.0 °F 67% 29.78 in 10.0 mi SE 15.0 mph 25.3 mph N/A   Mostly Cloudy
9:53 PM 79.0 °F - 66.9 °F 66% 29.80 in 10.0 mi SSE 13.8 mph - N/A   Mostly Cloudy
10:53 PM 79.0 °F - 66.9 °F 66% 29.84 in 10.0 mi South 9.2 mph - N/A   Overcast
11:53 PM 79.0 °F - 66.9 °F 66% 29.85 in 10.0 mi SSE 8.1 mph - N/A   Overcast